#timestamp,LO_Frequency,Hit,StdDev 
1646092815.5,286047001.5,N
1646092835.4,286047000.0,N
1646092855.2,286047002.1,N
1646092875.0,286047002.7,N
1646092875.9,286047002.7,N
1646092895.8,286047000.2,N
1646092915.6,286047002.7,N
1646092935.5,286046998.1,N
1646092955.3,286046998.8,N
1646092975.1,286046998.6,N
1646092995.9,286046998.3,N
1646093015.7,286046998.7,N
1646093035.5,286047001.6,N
1646093055.4,286047004.4,N
1646093075.2,286047003.3,N
1646093095.1,286047002.5,N
1646093096.0,286047002.5,N
1646093115.8,286047002.0,N
1646093135.6,286047001.9,N
1646093155.5,286047000.2,N
1646093175.3,286047002.2,N
1646093195.1,286047001.8,N
1646093215.9,286047002.3,N
1646093235.7,286046999.9,N
1646093255.6,286046999.9,N
1646093275.4,286047000.1,N
1646093295.2,286047000.4,N
1646093315.1,286047001.1,N
1646093316.0,286047001.1,N
1646093335.8,286047001.1,N
1646093355.6,286047000.2,N
1646093375.5,286047000.3,N
1646093395.3,286047001.0,N
1646093415.2,286046999.9,N
1646093435.9,286047002.3,N
1646093455.7,286047002.4,N
1646093475.6,286047004.0,N
1646093495.4,286047004.2,N
1646093515.2,286047004.3,N
1646093535.1,286047003.3,N
1646093536.0,286047003.3,N
1646093555.8,286047001.4,N
1646093575.7,286047002.1,N
1646093595.5,286047002.6,N
1646093615.3,286047002.3,N
1646093635.2,286047000.3,N
1646093655.0,286047000.4,N
1646093655.9,286047000.4,N
1646093675.7,286047002.7,N
1646093695.6,286047001.0,N
1646093715.4,286047001.1,N
1646093735.3,286047004.4,Y
1646093755.1,286047002.3,P
1646093775.8,286047000.6,N
1646093795.7,286047001.2,N
1646093815.5,286047000.0,N
1646093835.4,286047000.2,N
1646093855.2,286047000.9,N
1646093875.0,286046999.5,N
1646093875.9,286046999.5,N
1646093895.8,286046999.5,N
1646093915.6,286046997.3,N
1646093935.4,286046997.4,N
1646093955.3,286046996.8,N
1646093975.1,286046996.8,N
1646093995.9,286046995.8,N
1646094015.7,286046993.3,Y
1646094035.5,286046995.9,P
1646094055.4,286046995.3,N
1646094075.2,286046995.2,N
1646094095.0,286046995.7,N
1646094095.9,286046995.7,N
1646094115.8,286046993.7,Y
1646094135.6,286046999.0,P
1646094155.5,286046999.0,N
1646094175.3,286046998.1,N
1646094195.1,286046998.7,N
1646094215.9,286046998.7,N
1646094235.7,286047000.3,N
1646094255.5,286047001.0,N
1646094275.4,286047000.4,N
1646094295.2,286047000.3,N
1646094315.1,286047000.4,N
1646094316.0,286047000.4,N
1646094335.8,286046999.3,N
1646094355.6,286046997.4,N
1646094375.5,286046998.7,N
1646094395.3,286046999.3,N
1646094415.2,286046996.6,N
1646094435.9,286046998.4,N
1646094455.7,286046998.1,N
1646094475.6,286046998.6,N
1646094495.4,286046999.6,N
1646094515.2,286046996.5,N
1646094535.1,286046996.9,N
1646094536.0,286046996.9,N
1646094555.8,286046999.5,N
1646094575.7,286046997.3,N
1646094595.5,286046996.6,N
1646094615.3,286046999.2,N
1646094635.2,286046998.7,N
1646094655.0,286046998.8,N
1646094655.9,286046998.8,N
1646094675.8,286046998.8,N
1646094695.6,286046996.8,N
1646094715.4,286046997.8,N
1646094735.3,286046997.5,N
1646094755.1,286046995.5,Y
1646094775.9,286046999.5,P
1646094795.7,286046996.5,P
1646094815.5,286046997.1,N
1646094835.4,286046996.9,N
1646094855.2,286046998.8,N
1646094875.0,286046998.8,N
1646094875.9,286046998.8,N
1646094895.8,286046998.8,N
1646094915.6,286046999.6,N
1646094935.5,286046997.2,N
1646094955.3,286046996.5,Y
1646094975.1,286047000.0,P
1646094995.9,286046998.1,N
1646095015.7,286046999.3,N
1646095035.6,286046999.5,N
1646095055.4,286046997.2,Y
1646095075.2,286046998.8,P
1646095095.1,286047001.2,P
1646095096.0,286047001.2,N
1646095115.8,286047000.6,N
1646095135.6,286047000.4,N
1646095155.5,286047001.0,N
1646095175.3,286047000.9,N
1646095195.2,286046998.1,N
1646095215.9,286046998.3,N
1646095235.7,286046998.5,N
1646095255.6,286047001.2,N
1646095275.4,286047000.8,N
1646095295.2,286046999.3,N
1646095315.1,286047001.2,N
1646095316.0,286047001.2,N
1646095335.8,286046998.7,N
1646095355.7,286046996.9,N
1646095375.5,286046998.5,N
1646095395.3,286046999.5,N
1646095415.2,286046999.4,N
1646095435.0,286046996.6,N
1646095435.9,286046996.6,N
1646095455.7,286046999.5,N
1646095475.6,286046998.9,N
1646095495.4,286046996.5,N
1646095515.3,286046996.8,N
1646095535.1,286046997.8,N
1646095555.8,286046997.8,N
1646095575.7,286046997.4,N
1646095595.5,286046996.9,N
1646095615.4,286046995.3,N
1646095635.2,286046994.9,N
1646095655.0,286046997.5,N
1646095655.9,286046997.5,N
1646095675.8,286046999.6,N
1646095695.6,286046997.7,N
1646095715.4,286046998.0,N
1646095735.3,286046995.7,N
1646095755.1,286046995.3,N
1646095775.9,286046995.4,N
1646095795.7,286046995.1,N
1646095815.5,286046997.1,N
1646095835.4,286046997.5,N
1646095855.2,286046994.9,Y
1646095875.1,286046998.7,P
1646095876.0,286046998.7,N
1646095895.8,286046999.4,N
1646095915.6,286046998.6,N
1646095935.5,286046998.8,N
1646095955.3,286046996.9,Y
1646095975.1,286046999.4,P
1646095995.9,286046999.3,N
1646096015.7,286046996.8,P
1646096035.6,286046996.8,Y
1646096055.4,286046996.5,P
1646096075.2,286046996.6,P
1646096095.1,286046998.8,N
1646096096.0,286046998.8,N
1646096115.8,286046998.7,N
1646096135.6,286046998.6,N
1646096155.5,286047000.3,N
1646096175.3,286046999.8,N
1646096195.2,286047001.6,N
1646096215.9,286047001.5,N
1646096235.7,286047000.3,N
1646096255.6,286047001.0,N
1646096275.4,286046998.1,N
1646096295.2,286046998.2,N
1646096315.1,286047000.8,N
1646096316.0,286047000.8,N
1646096335.8,286047000.1,N
1646096355.7,286047000.9,N
1646096375.5,286046999.9,N
1646096395.3,286047000.9,N
